Time,TemperatureF,DewpointF,PressureIn,WindDirection,WindDirectionDegrees,WindSpeedMPH,WindSpeedGustMPH,Humidity,HourlyPrecipIn,Conditions,Clouds,dailyrainin,SoftwareType,DateUTC
2013-01-17 00:02:00,19.0,17.0,-100.00,ESE,117,2.0,3.0,91,-99.99,,,-99.99,,2013-01-17 08:02:00,
2013-01-17 00:12:00,18.0,16.0,-100.00,ESE,120,4.0,5.0,91,-99.99,,,-99.99,,2013-01-17 08:12:00,
2013-01-17 00:22:00,18.0,16.0,-100.00,ESE,120,4.0,5.0,91,-99.99,,,-99.99,,2013-01-17 08:22:00,
2013-01-17 00:32:00,18.0,16.0,-100.00,ESE,114,3.0,4.0,90,-99.99,,,-99.99,,2013-01-17 08:32:00,
2013-01-17 00:43:00,18.0,16.0,-100.00,ESE,114,3.0,4.0,90,-99.99,,,-99.99,,2013-01-17 08:43:00,
2013-01-17 00:53:00,19.0,16.0,-100.00,ESE,104,4.0,6.0,87,-99.99,,,-99.99,,2013-01-17 08:53:00,
2013-01-17 01:02:00,19.0,16.0,-100.00,ESE,104,4.0,6.0,87,-99.99,,,-99.99,,2013-01-17 09:02:00,
2013-01-17 01:12:00,18.0,15.0,-100.00,SE,124,3.0,4.0,88,-99.99,,,-99.99,,2013-01-17 09:12:00,
2013-01-17 01:22:00,18.0,15.0,-100.00,SE,124,3.0,4.0,88,-99.99,,,-99.99,,2013-01-17 09:22:00,
2013-01-17 01:32:00,17.0,14.0,-100.00,ESE,121,1.0,2.0,89,-99.99,,,-99.99,,2013-01-17 09:32:00,
2013-01-17 01:42:00,17.0,14.0,-100.00,ESE,121,1.0,2.0,89,-99.99,,,-99.99,,2013-01-17 09:42:00,
2013-01-17 01:52:00,19.0,15.0,-100.00,ESE,102,4.0,5.0,87,-99.99,,,-99.99,,2013-01-17 09:52:00,
2013-01-17 02:02:00,19.0,15.0,-100.00,ESE,102,4.0,5.0,87,-99.99,,,-99.99,,2013-01-17 10:02:00,
2013-01-17 02:12:00,17.0,13.0,-100.00,East,86,2.0,3.0,86,-99.99,,,-99.99,,2013-01-17 10:12:00,
2013-01-17 02:22:00,17.0,13.0,-100.00,East,86,2.0,3.0,86,-99.99,,,-99.99,,2013-01-17 10:22:00,
2013-01-17 02:32:00,15.0,12.0,-100.00,East,83,1.0,3.0,88,-99.99,,,-99.99,,2013-01-17 10:32:00,
2013-01-17 02:42:00,15.0,12.0,-100.00,East,83,1.0,3.0,88,-99.99,,,-99.99,,2013-01-17 10:42:00,
2013-01-17 02:53:00,15.0,13.0,-100.00,East,80,1.0,2.0,90,-99.99,,,-99.99,,2013-01-17 10:53:00,
2013-01-17 03:02:00,15.0,13.0,-100.00,East,80,1.0,2.0,90,-99.99,,,-99.99,,2013-01-17 11:02:00,
2013-01-17 03:12:00,15.0,12.0,-100.00,East,95,1.0,3.0,90,-99.99,,,-99.99,,2013-01-17 11:12:00,
2013-01-17 03:22:00,15.0,12.0,-100.00,East,95,1.0,3.0,90,-99.99,,,-99.99,,2013-01-17 11:22:00,
2013-01-17 03:32:00,15.0,13.0,-100.00,ESE,109,3.0,4.0,90,-99.99,,,-99.99,,2013-01-17 11:32:00,
2013-01-17 03:42:00,15.0,13.0,-100.00,ESE,109,3.0,4.0,90,-99.99,,,-99.99,,2013-01-17 11:42:00,
2013-01-17 03:53:00,14.0,12.0,-100.00,ESE,113,2.0,3.0,91,-99.99,,,-99.99,,2013-01-17 11:53:00,
2013-01-17 04:02:00,14.0,12.0,-100.00,ESE,113,2.0,3.0,91,-99.99,,,-99.99,,2013-01-17 12:02:00,
2013-01-17 04:12:00,13.0,11.0,-100.00,South,174,0.0,2.0,92,-99.99,,,-99.99,,2013-01-17 12:12:00,
2013-01-17 04:22:00,13.0,11.0,-100.00,South,174,0.0,2.0,92,-99.99,,,-99.99,,2013-01-17 12:22:00,
2013-01-17 04:32:00,14.0,12.0,-100.00,ESE,117,1.0,2.0,92,-99.99,,,-99.99,,2013-01-17 12:32:00,
2013-01-17 04:42:00,14.0,12.0,-100.00,ESE,117,1.0,2.0,92,-99.99,,,-99.99,,2013-01-17 12:42:00,
2013-01-17 04:53:00,13.0,11.0,-100.00,SE,127,1.0,2.0,92,-99.99,,,-99.99,,2013-01-17 12:53:00,
2013-01-17 05:02:00,13.0,11.0,-100.00,SE,127,1.0,2.0,92,-99.99,,,-99.99,,2013-01-17 13:02:00,
2013-01-17 05:12:00,13.0,11.0,-100.00,East,96,2.0,4.0,91,-99.99,,,-99.99,,2013-01-17 13:12:00,
2013-01-17 05:22:00,13.0,11.0,-100.00,East,96,2.0,4.0,91,-99.99,,,-99.99,,2013-01-17 13:22:00,
2013-01-17 05:33:00,14.0,11.0,-100.00,ENE,76,1.0,3.0,90,-99.99,,,-99.99,,2013-01-17 13:33:00,
2013-01-17 05:42:00,14.0,11.0,-100.00,ENE,76,1.0,3.0,90,-99.99,,,-99.99,,2013-01-17 13:42:00,
2013-01-17 05:53:00,13.0,10.0,-100.00,East,82,0.0,1.0,89,-99.99,,,-99.99,,2013-01-17 13:53:00,
2013-01-17 06:03:00,13.0,10.0,-100.00,East,82,0.0,1.0,89,-99.99,,,-99.99,,2013-01-17 14:03:00,
2013-01-17 06:12:00,13.0,10.0,-100.00,East,92,1.0,3.0,89,-99.99,,,-99.99,,2013-01-17 14:12:00,
2013-01-17 06:23:00,13.0,10.0,-100.00,East,92,1.0,3.0,89,-99.99,,,-99.99,,2013-01-17 14:23:00,
2013-01-17 06:32:00,12.0,10.0,-100.00,ESE,119,2.0,3.0,91,-99.99,,,-99.99,,2013-01-17 14:32:00,
2013-01-17 06:42:00,12.0,10.0,-100.00,ESE,119,2.0,3.0,91,-99.99,,,-99.99,,2013-01-17 14:42:00,
2013-01-17 06:53:00,12.0,9.0,-100.00,ESE,116,2.0,3.0,90,-99.99,,,-99.99,,2013-01-17 14:53:00,
2013-01-17 07:03:00,12.0,9.0,-100.00,ESE,116,2.0,3.0,90,-99.99,,,-99.99,,2013-01-17 15:03:00,
2013-01-17 07:12:00,10.0,8.0,-100.00,South,186,0.0,0.0,91,-99.99,,,-99.99,,2013-01-17 15:12:00,
2013-01-17 07:22:00,10.0,8.0,-100.00,South,186,0.0,0.0,91,-99.99,,,-99.99,,2013-01-17 15:22:00,
2013-01-17 07:33:00,10.0,8.0,-100.00,South,186,0.0,0.0,91,-99.99,,,-99.99,,2013-01-17 15:33:00,
2013-01-17 07:53:00,12.0,10.0,-100.00,ESE,120,0.0,2.0,92,-99.99,,,-99.99,,2013-01-17 15:53:00,
2013-01-17 08:02:00,12.0,10.0,-100.00,ESE,120,0.0,2.0,92,-99.99,,,-99.99,,2013-01-17 16:02:00,
2013-01-17 08:12:00,10.0,8.0,-100.00,ESE,114,1.0,3.0,91,-99.99,,,-99.99,,2013-01-17 16:12:00,
2013-01-17 08:22:00,10.0,8.0,-100.00,ESE,114,1.0,3.0,91,-99.99,,,-99.99,,2013-01-17 16:22:00,
2013-01-17 08:33:00,13.0,11.0,-100.00,SE,136,1.0,2.0,92,-99.99,,,-99.99,,2013-01-17 16:33:00,
2013-01-17 08:43:00,13.0,11.0,-100.00,SE,136,1.0,2.0,92,-99.99,,,-99.99,,2013-01-17 16:43:00,
2013-01-17 08:53:00,15.0,13.0,-100.00,SSE,167,0.0,2.0,90,-99.99,,,-99.99,,2013-01-17 16:53:00,
2013-01-17 09:02:00,15.0,13.0,-100.00,SSE,167,0.0,2.0,90,-99.99,,,-99.99,,2013-01-17 17:02:00,
2013-01-17 09:12:00,18.0,14.0,-100.00,ESE,123,1.0,3.0,83,-99.99,,,-99.99,,2013-01-17 17:12:00,
2013-01-17 09:22:00,18.0,14.0,-100.00,ESE,123,1.0,3.0,83,-99.99,,,-99.99,,2013-01-17 17:22:00,
2013-01-17 09:33:00,21.0,15.0,-100.00,SE,126,1.0,3.0,77,-99.99,,,-99.99,,2013-01-17 17:33:00,
2013-01-17 09:43:00,21.0,15.0,-100.00,SE,126,1.0,3.0,77,-99.99,,,-99.99,,2013-01-17 17:43:00,
2013-01-17 09:53:00,21.0,15.0,-100.00,West,275,2.0,3.0,79,-99.99,,,-99.99,,2013-01-17 17:53:00,
2013-01-17 10:03:00,21.0,15.0,-100.00,West,275,2.0,3.0,79,-99.99,,,-99.99,,2013-01-17 18:03:00,
2013-01-17 10:12:00,21.0,16.0,-100.00,West,265,2.0,3.0,80,-99.99,,,-99.99,,2013-01-17 18:12:00,
2013-01-17 10:22:00,21.0,16.0,-100.00,West,265,2.0,3.0,80,-99.99,,,-99.99,,2013-01-17 18:22:00,
2013-01-17 10:33:00,23.0,16.0,-100.00,West,267,2.0,4.0,74,-99.99,,,-99.99,,2013-01-17 18:33:00,
2013-01-17 10:43:00,23.0,16.0,-100.00,West,267,2.0,4.0,74,-99.99,,,-99.99,,2013-01-17 18:43:00,
2013-01-17 10:53:00,24.0,17.0,-100.00,West,268,2.0,3.0,74,-99.99,,,-99.99,,2013-01-17 18:53:00,
2013-01-17 11:02:00,24.0,17.0,-100.00,West,268,2.0,3.0,74,-99.99,,,-99.99,,2013-01-17 19:02:00,
2013-01-17 11:12:00,26.0,18.0,-100.00,West,267,2.0,4.0,73,-99.99,,,-99.99,,2013-01-17 19:12:00,
2013-01-17 11:22:00,26.0,18.0,-100.00,West,267,2.0,4.0,73,-99.99,,,-99.99,,2013-01-17 19:22:00,
2013-01-17 11:33:00,27.0,17.0,-100.00,WSW,258,1.0,4.0,66,-99.99,,,-99.99,,2013-01-17 19:33:00,
2013-01-17 11:42:00,27.0,17.0,-100.00,WSW,258,1.0,4.0,66,-99.99,,,-99.99,,2013-01-17 19:42:00,
2013-01-17 11:53:00,29.0,17.0,-100.00,WSW,240,1.0,3.0,61,-99.99,,,-99.99,,2013-01-17 19:53:00,
2013-01-17 12:02:00,29.0,17.0,-100.00,WSW,240,1.0,3.0,61,-99.99,,,-99.99,,2013-01-17 20:02:00,
2013-01-17 12:12:00,29.0,18.0,-100.00,West,281,2.0,4.0,63,-99.99,,,-99.99,,2013-01-17 20:12:00,
2013-01-17 12:22:00,29.0,18.0,-100.00,West,281,2.0,4.0,63,-99.99,,,-99.99,,2013-01-17 20:22:00,
2013-01-17 12:33:00,30.0,19.0,-100.00,WNW,287,2.0,5.0,65,-99.99,,,-99.99,,2013-01-17 20:33:00,
2013-01-17 12:43:00,30.0,19.0,-100.00,WNW,287,2.0,5.0,65,-99.99,,,-99.99,,2013-01-17 20:43:00,
2013-01-17 12:53:00,32.0,20.0,-100.00,WSW,250,2.0,3.0,62,-99.99,,,-99.99,,2013-01-17 20:53:00,
2013-01-17 13:02:00,32.0,20.0,-100.00,WSW,250,2.0,3.0,62,-99.99,,,-99.99,,2013-01-17 21:02:00,
2013-01-17 13:12:00,32.0,20.0,-100.00,WSW,254,2.0,4.0,60,-99.99,,,-99.99,,2013-01-17 21:12:00,
2013-01-17 13:22:00,32.0,20.0,-100.00,WSW,254,2.0,4.0,60,-99.99,,,-99.99,,2013-01-17 21:22:00,
2013-01-17 13:33:00,32.0,20.0,-100.00,WSW,256,3.0,5.0,60,-99.99,,,-99.99,,2013-01-17 21:33:00,
2013-01-17 13:42:00,32.0,20.0,-100.00,WSW,256,3.0,5.0,60,-99.99,,,-99.99,,2013-01-17 21:42:00,
2013-01-17 13:53:00,34.0,20.0,-100.00,WSW,251,3.0,6.0,57,-99.99,,,-99.99,,2013-01-17 21:53:00,
2013-01-17 14:03:00,34.0,20.0,-100.00,WSW,251,3.0,6.0,57,-99.99,,,-99.99,,2013-01-17 22:03:00,
2013-01-17 14:12:00,34.0,19.0,-100.00,SW,236,2.0,4.0,53,-99.99,,,-99.99,,2013-01-17 22:12:00,
2013-01-17 14:22:00,34.0,19.0,-100.00,SW,236,2.0,4.0,53,-99.99,,,-99.99,,2013-01-17 22:22:00,
2013-01-17 14:33:00,35.0,17.0,-100.00,West,260,2.0,4.0,47,-99.99,,,-99.99,,2013-01-17 22:33:00,
2013-01-17 14:42:00,35.0,17.0,-100.00,West,260,2.0,4.0,47,-99.99,,,-99.99,,2013-01-17 22:42:00,
2013-01-17 14:52:00,36.0,20.0,-100.00,West,274,2.0,4.0,52,-99.99,,,-99.99,,2013-01-17 22:52:00,
2013-01-17 15:02:00,36.0,20.0,-100.00,West,274,2.0,4.0,52,-99.99,,,-99.99,,2013-01-17 23:02:00,
2013-01-17 15:12:00,36.0,22.0,-100.00,West,267,3.0,5.0,57,-99.99,,,-99.99,,2013-01-17 23:12:00,
2013-01-17 15:22:00,36.0,22.0,-100.00,West,267,3.0,5.0,57,-99.99,,,-99.99,,2013-01-17 23:22:00,
2013-01-17 15:32:00,36.0,22.0,-100.00,West,267,3.0,5.0,57,-99.99,,,-99.99,,2013-01-17 23:32:00,
2013-01-17 15:42:00,36.0,20.0,-100.00,WSW,237,3.0,4.0,51,-99.99,,,-99.99,,2013-01-17 23:42:00,
2013-01-17 15:53:00,37.0,21.0,-100.00,WSW,250,2.0,4.0,52,-99.99,,,-99.99,,2013-01-17 23:53:00,
2013-01-17 16:02:00,37.0,21.0,-100.00,WSW,250,2.0,4.0,52,-99.99,,,-99.99,,2013-01-18 00:02:00,
2013-01-17 16:12:00,36.0,20.0,-100.00,WSW,237,3.0,4.0,51,-99.99,,,-99.99,,2013-01-18 00:12:00,
2013-01-17 16:23:00,36.0,20.0,-100.00,WSW,237,3.0,4.0,51,-99.99,,,-99.99,,2013-01-18 00:23:00,
2013-01-17 16:32:00,36.0,20.0,-100.00,WSW,237,3.0,4.0,51,-99.99,,,-99.99,,2013-01-18 00:32:00,
2013-01-17 16:53:00,36.0,22.0,-100.00,SW,236,3.0,4.0,55,-99.99,,,-99.99,,2013-01-18 00:53:00,
2013-01-17 17:02:00,36.0,22.0,-100.00,SW,236,3.0,4.0,55,-99.99,,,-99.99,,2013-01-18 01:02:00,
2013-01-17 17:12:00,32.0,21.0,-100.00,WSW,239,3.0,4.0,64,-99.99,,,-99.99,,2013-01-18 01:12:00,
2013-01-17 17:22:00,32.0,21.0,-100.00,WSW,239,3.0,4.0,64,-99.99,,,-99.99,,2013-01-18 01:22:00,
2013-01-17 17:33:00,30.0,20.0,-100.00,SSW,212,2.0,3.0,67,-99.99,,,-99.99,,2013-01-18 01:33:00,
2013-01-17 17:53:00,30.0,20.0,-100.00,SSW,199,2.0,2.0,68,-99.99,,,-99.99,,2013-01-18 01:53:00,
2013-01-17 18:02:00,30.0,20.0,-100.00,SSW,199,2.0,2.0,68,-99.99,,,-99.99,,2013-01-18 02:02:00,
2013-01-17 18:12:00,30.0,21.0,-100.00,ESE,110,2.0,4.0,71,-99.99,,,-99.99,,2013-01-18 02:12:00,
2013-01-17 18:22:00,30.0,21.0,-100.00,ESE,110,2.0,4.0,71,-99.99,,,-99.99,,2013-01-18 02:22:00,
2013-01-17 18:32:00,28.0,20.0,-100.00,ESE,117,3.0,5.0,72,-99.99,,,-99.99,,2013-01-18 02:32:00,
2013-01-17 18:42:00,28.0,20.0,-100.00,ESE,117,3.0,5.0,72,-99.99,,,-99.99,,2013-01-18 02:42:00,
2013-01-17 18:53:00,27.0,20.0,-100.00,ESE,113,5.0,6.0,74,-99.99,,,-99.99,,2013-01-18 02:53:00,
2013-01-17 19:02:00,27.0,20.0,-100.00,ESE,113,5.0,6.0,74,-99.99,,,-99.99,,2013-01-18 03:02:00,
2013-01-17 19:12:00,26.0,20.0,-100.00,ESE,123,3.0,5.0,76,-99.99,,,-99.99,,2013-01-18 03:12:00,
2013-01-17 19:22:00,26.0,20.0,-100.00,ESE,123,3.0,5.0,76,-99.99,,,-99.99,,2013-01-18 03:22:00,
2013-01-17 19:33:00,26.0,20.0,-100.00,East,95,2.0,4.0,77,-99.99,,,-99.99,,2013-01-18 03:33:00,
2013-01-17 19:42:00,26.0,20.0,-100.00,East,95,2.0,4.0,77,-99.99,,,-99.99,,2013-01-18 03:42:00,
2013-01-17 19:52:00,25.0,18.0,-100.00,East,83,2.0,4.0,77,-99.99,,,-99.99,,2013-01-18 03:52:00,
2013-01-17 20:02:00,25.0,18.0,-100.00,East,83,2.0,4.0,77,-99.99,,,-99.99,,2013-01-18 04:02:00,
2013-01-17 20:12:00,24.0,19.0,-100.00,East,80,2.0,4.0,80,-99.99,,,-99.99,,2013-01-18 04:12:00,
2013-01-17 20:22:00,24.0,19.0,-100.00,East,80,2.0,4.0,80,-99.99,,,-99.99,,2013-01-18 04:22:00,
2013-01-17 20:32:00,24.0,19.0,-100.00,East,80,2.0,4.0,80,-99.99,,,-99.99,,2013-01-18 04:32:00,
2013-01-17 21:03:00,21.0,17.0,-100.00,South,172,1.0,2.0,86,-99.99,,,-99.99,,2013-01-18 05:03:00,
2013-01-17 21:12:00,21.0,18.0,-100.00,ESE,121,0.0,2.0,87,-99.99,,,-99.99,,2013-01-18 05:12:00,
2013-01-17 21:22:00,21.0,18.0,-100.00,ESE,121,0.0,2.0,87,-99.99,,,-99.99,,2013-01-18 05:22:00,
2013-01-17 21:33:00,21.0,18.0,-100.00,SE,126,1.0,2.0,88,-99.99,,,-99.99,,2013-01-18 05:33:00,
2013-01-17 21:42:00,21.0,18.0,-100.00,SE,126,1.0,2.0,88,-99.99,,,-99.99,,2013-01-18 05:42:00,
2013-01-17 21:53:00,21.0,18.0,-100.00,SE,128,2.0,3.0,89,-99.99,,,-99.99,,2013-01-18 05:53:00,
2013-01-17 22:02:00,21.0,18.0,-100.00,SE,128,2.0,3.0,89,-99.99,,,-99.99,,2013-01-18 06:02:00,
2013-01-17 22:12:00,20.0,17.0,-100.00,SE,126,1.0,3.0,88,-99.99,,,-99.99,,2013-01-18 06:12:00,
2013-01-17 22:22:00,20.0,17.0,-100.00,SE,126,1.0,3.0,88,-99.99,,,-99.99,,2013-01-18 06:22:00,
2013-01-17 22:32:00,21.0,17.0,-100.00,ESE,106,2.0,4.0,84,-99.99,,,-99.99,,2013-01-18 06:32:00,
2013-01-17 22:42:00,21.0,17.0,-100.00,ESE,106,2.0,4.0,84,-99.99,,,-99.99,,2013-01-18 06:42:00,
2013-01-17 22:52:00,20.0,16.0,-100.00,ESE,109,3.0,4.0,84,-99.99,,,-99.99,,2013-01-18 06:52:00,
2013-01-17 23:02:00,20.0,16.0,-100.00,ESE,109,3.0,4.0,84,-99.99,,,-99.99,,2013-01-18 07:02:00,
2013-01-17 23:12:00,19.0,15.0,-100.00,ESE,112,4.0,6.0,84,-99.99,,,-99.99,,2013-01-18 07:12:00,
2013-01-17 23:22:00,19.0,15.0,-100.00,ESE,112,4.0,6.0,84,-99.99,,,-99.99,,2013-01-18 07:22:00,
2013-01-17 23:32:00,19.0,15.0,-100.00,SE,126,3.0,4.0,85,-99.99,,,-99.99,,2013-01-18 07:32:00,
2013-01-17 23:42:00,19.0,15.0,-100.00,SE,126,3.0,4.0,85,-99.99,,,-99.99,,2013-01-18 07:42:00,
2013-01-17 23:52:00,19.0,15.0,-100.00,ESE,119,4.0,5.0,86,-99.99,,,-99.99,,2013-01-18 07:52:00,